Location: Proctor
(47.8934°N, 114.3048°W)
Time: 12:43:19
(UTC+00:00)

Tiangong - Visible Passes

Search period start: 22 January 2022 00:00
Search period end: 01 February 2022 00:00
Orbit: 383 x 386 km, 41.5° (Epoch: 21 January)

Date Brightness Start Highest point End Pass type
(mag) Time Alt. Az. Time Alt. Az. Time Alt. Az.
28 Jan 3.7 02:05:31 10° SSE 02:05:43 10° SSE 02:05:49 10° SSE visible
29 Jan 3.5 02:39:54 10° SSW 02:41:10 16° S 02:41:10 16° S visible
30 Jan 3.4 01:40:47 10° SSW 01:42:35 14° SSE 01:44:15 11° SE visible
30 Jan 4.3 03:16:09 10° SW 03:16:28 12° SW 03:16:28 12° SW visible
31 Jan 2.8 02:16:33 10° SW 02:19:06 22° S 02:19:30 22° SSE visible
